Tracking 29069 objects as of 18-Jul-2024
HD Live streaming from Space Station
objects crossing your sky now

COSMOS 1153

Track COSMOS 1153 now!
10-day predictions
COSMOS 1153 is classified as:


NORAD ID: 11680
Int'l Code: 1980-007A
Perigee: 965.0 km
Apogee: 1,021.4 km
Inclination: 82.9 °
Period: 104.8 minutes
Semi major axis: 7364 km
RCS: 3.444 m2 (large)
Launch date: January 25, 1980
Source: Commonwealth of Independent States (former USSR) (CIS)
Launch site: PLESETSK MISSILE AND SPACE COMPLEX (PKMTR)
Your satellite tracking list
Your tracking list is empty




NASA's NSSDC Master Catalog

Two Line Element Set (TLE):
1 11680U 80007A   24199.83930559  .00000093  00000-0  82579-4 0  9995
2 11680  82.9347 328.2247 0038288 122.0650 348.2436 13.73770037226484
Source of the keplerian elements: AFSPC